Regional Weather Roundup
Issued by NWS

Home | Current Version | Previous Version | Graphics & Text | Print | Product List | Glossary On
Versions: 1 2 3 4 5 6 7 8 9 10 11 12 13 14 15 16 17 18 19 20 21 22 23 24 25 26 27 28 29 30 31 32 33 34 35 36 37 38 39 40 41 42 43 44 45 46 47 48 49 50
000
ASUS43 KMKX 201700
RWRWI

WISCONSIN REGIONAL WEATHER ROUNDUP
NATIONAL WEATHER SERVICE MILWAUKEE/SULLIVAN WI
1200 PM CDT SUN AUG 20 2017

NOTE: "FAIR" INDICATES FEW OR NO CLOUDS BELOW 12,000 FEET WITH NO
SIGNIFICANT WEATHER AND/OR OBSTRUCTIONS TO VISIBILITY.

WIZ001-002-006>008-014>016-023>028-201800-
NORTHWEST WISCONSIN

CITY           SKY/WX    TMP DP  RH WIND       PRES   REMARKS
SUPERIOR ARPT    N/A     72  66  81 W9G17     29.88R
ASHLAND        MOSUNNY   81  66  60 SW14      29.87R HX  83
HAYWARD        MOSUNNY   77  65  66 S13G20    29.92R
SIREN          PTSUNNY   77  65  68 W7        29.92R
CUMBERLAND     SUNNY     73  63  68 SW12      29.94R
RICE LAKE      SUNNY     75  65  72 S8G16     29.95S
CHETEK         SUNNY     76  66  72 SW9       29.94F
LADYSMITH      SUNNY     76  65  69 SW12G17   29.97S
EAU CLAIRE     NOT AVBL
MENOMONIE      SUNNY     76  66  70 SW8       29.95S
NEW RICHMOND   MOSUNNY   77  65  65 SW7       29.94R
OSCEOLA        SUNNY     78  67  68 SW8       29.96R HX  80
$$

WIZ003>005-009-010-017-018-201800-
NORTH CENTRAL WISCONSIN

CITY           SKY/WX    TMP DP  RH WIND       PRES   REMARKS
MANITOWISH WTR MOSUNNY   76  67  72 SW14G21   29.94S
ARBOR VITAE    SUNNY     77  66  69 SW13G18   29.95F
WOODRUFF       SUNNY     77  66  69 SW13G18   29.95F
RHINELANDER    MOSUNNY   76  65  68 SW18G24   29.98F
EAGLE RIVER    MOSUNNY   75  60  60 SW12G20   29.96F
LAND O LAKES   MOSUNNY   75  62  63 S12G18    29.97F
PHILLIPS       SUNNY     75  67  74 SW13G21   29.95S
TOMAHAWK         N/A     75  64  69 SW7       29.98S
MEDFORD        CLOUDY    72  65  77 S13       29.98S
MERRILL        CLOUDY    75  64  69 SW10      29.99F
$$

WIZ029-030-035-036-043>047-201800-
CENTRAL WISCONSIN

CITY           SKY/WX    TMP DP  RH WIND       PRES   REMARKS
WAUSAU         CLOUDY    75  64  68 S10       29.97F
MOSINEE        CLOUDY    73  66  78 S10       30.01S
MARSHFIELD     PTSUNNY   75  64  68 S10       29.99F
STEVENS POINT  CLOUDY    75  63  67 S14       30.01F
WAUPACA        PTSUNNY   78  64  62 S7        30.02S HX  80
WAUTOMA        PTSUNNY   77  66  68 S8        30.01F
WISC RAPIDS    CLOUDY    76  65  68 SW12      30.01F
CAMP DOUGLAS   NOT AVBL
$$

WIZ011>013-019>022-031-037>040-048>050-201800-
NORTHEAST WISCONSIN

CITY           SKY/WX    TMP DP  RH WIND       PRES   REMARKS
ANTIGO         CLOUDY    72  63  72 SW15      30.02S
SHAWANO        CLOUDY    78  64  62 SW5       30.00F
OCONTO         CLOUDY    77  65  65 SW12      30.01S
STURGEON BAY   CLOUDY    76  64  66 S14       30.01F
GREEN BAY      MOSUNNY   76  66  71 SW10      30.01F
MANITOWOC      NOT AVBL
APPLETON       PTSUNNY   75  59  57 SW14      30.01S
CLINTONVILLE   MOSUNNY   77  61  57 SW10      30.01S
OSHKOSH        CLOUDY    76  64  66 S12       30.02F
$$

WIZ032>034-041-042-053>061-201800-
SOUTHWEST WISCONSIN

CITY           SKY/WX    TMP DP  RH WIND       PRES   REMARKS
LA CROSSE      CLOUDY    76  66  71 SE9       29.97F
SPARTA         CLOUDY    73  65  74 SW5       30.01S
VIROQUA        CLOUDY    72  67  84 CALM      30.03S
BOSCOBEL       CLOUDY    76  65  68 W7        30.01F
PRAIRIE DU CHI CLOUDY    74  64  71 CALM      30.01F
PLATTEVILLE    CLOUDY    74  69  85 SW5       30.04F
$$

WIZ056-057-062-063-064-067-068-201800-
SOUTH CENTRAL WISCONSIN

CITY           SKY/WX    TMP DP  RH WIND       PRES   REMARKS
REEDSBURG      CLOUDY    75  67  75 SW8       30.02S
BARABOO/DELLS  CLOUDY    76  63  64 SW6       30.02F
LONE ROCK      CLOUDY    77  67  71 W5        30.01F
MINERAL POINT  CLOUDY    75  68  78 SW7       30.04F
MADISON        CLOUDY    77  67  71 SW6       30.02F
MIDDLETON      CLOUDY    77  66  69 W7        30.04S
WATERTOWN      CLOUDY    77  68  73 S9        30.04F
MONROE         CLOUDY    73  64  73 SW10      30.05S
JANESVILLE     PTSUNNY   79  66  65 SW8       30.03F HX  81
$$

WIZ051-052-058>065-066-070>072-201800-
SOUTHEAST WISCONSIN

CITY           SKY/WX    TMP DP  RH WIND       PRES   REMARKS
MILWAUKEE      CLOUDY    82  64  54 SW12      30.04F HX  83
WAUKESHA       SUNNY     77  64  65 SW12      30.06S
MILWAUKEE/TIMM SUNNY     79  61  53 SW7       30.05F HX  80
RACINE         CLOUDY    78  66  66 S7        30.06S HX  80
KENOSHA        CLOUDY    80  66  62 SW8       30.05S HX  82
FOND DU LAC    CLOUDY    77  63  61 SW9       30.03S
SHEBOYGAN      MOSUNNY   79  65  62 SW9       30.03F HX  81
WEST BEND      CLOUDY    77  64  65 S5        30.05S
JUNEAU         MOSUNNY   74  65  73 SW8       30.06S
$$

LSZ147-162-201800-
LAKE SUPERIOR

STATION/POSITION TIME  TEMP    WIND        PRES    WAVE
                       AIR SEA DIR/SP/G            HT/PER
                 (UTC) (F)     (DEG/KT/KT) (MB)    (FT/S)
W MID LAKE BUOY  1550   64 60  210/ 12/ 12 1010.4R   1/ 3
DEVILS ISLAND    1600   69     280/  3/  4 1010.5R
SAXON HARBOR     1640   80     220/  9/ 16 1010.5F
$$

LMZ867-665-643>646-201800-
LAKE MICHIGAN

STATION/POSITION TIME  TEMP    WIND        PRES    WAVE
                       AIR SEA DIR/SP/G            HT/PER
                 (UTC) (F)     (DEG/KT/KT) (MB)    (FT/S)
S GREEN BAY BUOY 1630   73 71  210/ 10/ 12 1015.9S
N MID LAKE BUOY  1550   68 67  190/ 12/ 12 1016.3R   1/ 4
NORTHPORT PIER   1640   77     210/  6/ 10 1015.6S
KEWAUNEE LAKESHO 1630   68     180/  8/ 10 1015.8F
PORT WASHINGTON  1630   75     180/  5/  8 1017.9F
ATWATER BUOY     1509   71 71  150/  8/ 10 1017.4F
MILWAUKEE LAKESH 1630   71     140/  9/ 11   N/A
S MID LAKE BUOY  1550   72 71  180/ 10/ 10 1018.1R   1/ 3
KENOSHA   LAKESH 1600   73     170/ 10/ 11 1017.3
$$

TC  - TEMPERATURE IN CELSIUS
VSB - VISIBILITY IN STATUTE MILES
WCI - WIND CHILL INDEX
HX  - HEAT INDEX





USA.gov is the U.S. government's official web portal to all federal, state and local government web resources and services.